Weather History for Price, UT

Change the Weather History Date:

Saturday, March 23, 2013

  Actual Average Record
Temperature  
Mean Temperature 28 °F -  
Max Temperature 37 °F 54 °F 71 °F (2012)
Min Temperature 19 °F 30 °F 19 °F (2013)
Degree Days  
Heating Degree Days 37    
Moisture  
Dew Point 1 °F    
Average Humidity 35    
Maximum Humidity 57    
Minimum Humidity 14    
Precipitation  
Precipitation 0.00 in - - ()
Sea Level Pressure  
Sea Level Pressure 30.12 in    
Wind  
Wind Speed 10 mph (NW)    
Max Wind Speed 25 mph    
Max Gust Speed 34 mph    
Visibility 10 miles    
Events      
Averages and records for this station are not official NWS values.
T = Trace of Precipitation, MM = Missing Value Source: NWS Daily Summary

Daily Weather History Graph

Daily Weather History Graph

Search for Another Location

Airport:

Trip Planner

Search our weather history database for the weather conditions in past years. The results will help you decide how hot, cold, wet, or windy it might be!

Date:

Astronomy

Mar. 23, 2013 Rise Set
Actual Time 7:21 AM MDT 7:38 PM MDT
Civil Twilight 6:54 AM MDT 8:05 PM MDT
Nautical Twilight 6:22 AM MDT 8:36 PM MDT
Astronomical Twilight 5:50 AM MDT 9:09 PM MDT
Moon 4:09 PM MDT (3/23) 4:58 AM MDT (3/23)
Length of Visible Light 13h 11m
Length of Day
12h 17m
Waxing Gibbous, 85% of the Moon is Illuminated
Mar 23
Waxing Gibbous
Mar 27
Full
Apr 2
Last Quarter
Apr 10
New
Apr 18
First Quarter

Hourly Weather History & Observations

Time (MDT) Temp. Windchill Dew Point Humidity Pressure Visibility Wind Dir Wind Speed Gust Speed Precip Events Conditions
12:53 AM 21.9 °F 17.2 °F 6.1 °F 51% 30.00 in 10.0 mi West 3.5 mph - N/A   Clear
1:53 AM 19.0 °F 12.3 °F 6.1 °F 57% 30.01 in 10.0 mi North 4.6 mph - N/A   Clear
2:53 AM 21.0 °F 14.6 °F 5.0 °F 50% 30.00 in 10.0 mi WNW 4.6 mph - N/A   Clear
3:53 AM 19.0 °F 12.3 °F 3.0 °F 50% 30.01 in 10.0 mi WNW 4.6 mph - N/A   Clear
4:53 AM 19.9 °F 12.1 °F 3.0 °F 48% 30.01 in 10.0 mi NW 5.8 mph - N/A   Clear
5:53 AM 19.9 °F 12.1 °F 3.0 °F 48% 30.04 in 10.0 mi West 5.8 mph - N/A   Clear
6:53 AM 21.0 °F 6.6 °F 3.9 °F 48% 30.04 in 10.0 mi NW 17.3 mph 32.2 mph N/A   Clear
7:53 AM 21.9 °F 7.8 °F 3.0 °F 44% 30.07 in 10.0 mi NW 17.3 mph 29.9 mph N/A   Clear
8:53 AM 23.0 °F 8.0 °F 3.9 °F 44% 30.09 in 10.0 mi NW 20.7 mph 33.4 mph N/A   Clear
9:53 AM 27.0 °F 11.9 °F 3.0 °F 36% 30.11 in 10.0 mi NW 25.3 mph 34.5 mph N/A   Clear
10:53 AM 30.0 °F 17.5 °F 3.9 °F 33% 30.12 in 10.0 mi NNW 19.6 mph 32.2 mph N/A   Clear
11:53 AM 30.9 °F 18.1 °F 3.9 °F 32% 30.14 in 10.0 mi NW 21.9 mph 33.4 mph N/A   Clear
12:53 PM 34.0 °F 23.0 °F 1.0 °F 25% 30.14 in 10.0 mi NW 18.4 mph 27.6 mph N/A   Clear
1:53 PM 36.0 °F 27.5 °F -0.0 °F 22% 30.14 in 10.0 mi WNW 12.7 mph 26.5 mph N/A   Clear
2:53 PM 37.0 °F 28.5 °F -4.0 °F 17% 30.12 in 10.0 mi WNW 13.8 mph 21.9 mph N/A   Unknown
3:53 PM 34.0 °F 25.5 °F -7.1 °F 17% 30.14 in 10.0 mi NNW 11.5 mph 18.4 mph N/A   Scattered Clouds
4:53 PM 37.0 °F 29.3 °F -8.0 °F 14% 30.12 in 10.0 mi NW 11.5 mph 18.4 mph N/A   Partly Cloudy
5:53 PM 36.0 °F 28.0 °F -9.0 °F 14% 30.14 in 10.0 mi NW 11.5 mph - N/A   Clear
6:53 PM 32.0 °F 22.5 °F -13.0 °F 14% 30.16 in 10.0 mi NW 12.7 mph - N/A   Clear
7:53 PM 28.9 °F 21.1 °F -0.9 °F 28% 30.20 in 10.0 mi West 8.1 mph - N/A   Clear
8:53 PM 27.0 °F 23.0 °F -0.9 °F 30% 30.23 in 10.0 mi NNW 3.5 mph - N/A   Clear
9:53 PM 26.1 °F 16.8 °F 1.9 °F 35% 30.24 in 10.0 mi NW 9.2 mph - N/A   Clear
10:53 PM 21.9 °F 17.2 °F 3.0 °F 44% 30.25 in 10.0 mi NNW 3.5 mph - N/A   Clear
11:53 PM 19.9 °F 12.1 °F 3.9 °F 50% 30.26 in 10.0 mi NW 5.8 mph - N/A   Clear